Location: Brno
(49.2000°N, 16.6330°E)
Time: 23:16:40
(UTC+02:00)

Transit 4A - Pass Details

Date: 28 July 2021
Orbit: 870 x 974 km, 66.8° (Epoch: 26 September)

Event Time Altitude Azimuth Distance (km) Brightness Sun altitude
Rises 07:05:06 0° 316° (NW) 3,467 10.6 15.0°
Reaches altitude 10° 07:08:42 10° 338° (NNW) 2,528 10.1 15.6°
Maximum altitude 07:12:08 16° 15° (NNE) 2,151 10.3 16.2°
Drops below altitude 10° 07:15:34 10° 51° (NE) 2,540 11.5 16.7°
Sets 07:19:12 0° 73° (ENE) 3,492 12.6 17.3°
